| time (UTC) | temp F | wind direction | speed MPH | gust MPH | rain 1hr in | rain 24hr in | rain mn in | humidity % | barometer mb |
| 20260508193148 | 68 | 231 | 3.0 | 9.0 | 0.00 | 0.00 | 0.00 | 42 | 1016.7 |
| 20260508192647 | 67 | 189 | 3.0 | 7.0 | 0.00 | 0.00 | 0.00 | 43 | 1017.2 |
| 20260508192147 | 68 | 28 | 3.0 | 6.0 | 0.00 | 0.00 | 0.00 | 40 | 1017.2 |
| 20260508191645 | 67 | 293 | 3.0 | 8.0 | 0.00 | 0.00 | 0.00 | 46 | 1017.2 |
| 20260508191145 | 67 | 344 | 3.0 | 8.0 | 0.00 | 0.00 | 0.00 | 41 | 1017.5 |
| 20260508190645 | 67 | 193 | 2.0 | 8.0 | 0.00 | 0.00 | 0.00 | 43 | 1017.5 |
| 20260508190146 | 67 | 244 | 2.0 | 5.0 | 0.00 | 0.00 | 0.00 | 44 | 1017.5 |
| 20260508185645 | 67 | 303 | 2.0 | 4.0 | 0.00 | 0.00 | 0.00 | 42 | 1017.7 |
| 20260508185145 | 67 | 354 | 2.0 | 4.0 | 0.00 | 0.00 | 0.00 | 42 | 1017.7 |
| 20260508184900 | 67 | 355 | 2.0 | 5.0 | 0.00 | 0.00 | 0.00 | 44 | 1017.7 |
| 20260508184140 | 67 | 26 | 2.0 | 5.0 | 0.00 | 0.00 | 0.00 | 43 | 1017.8 |
| 20260508183640 | 67 | 193 | 2.0 | 5.0 | 0.00 | 0.00 | 0.00 | 42 | 1017.8 |
| 20260508183405 | 66 | 301 | 2.0 | 6.0 | 0.00 | 0.00 | 0.00 | 51 | 1017.8 |
| 20260508182639 | 66 | 344 | 2.0 | 6.0 | 0.00 | 0.00 | 0.00 | 45 | 1017.9 |
| 20260508182135 | 66 | 229 | 2.0 | 5.0 | 0.00 | 0.00 | 0.00 | 48 | 1017.9 |
| 20260508181617 | 65 | 293 | 2.0 | 5.0 | 0.00 | 0.00 | 0.00 | 50 | 1017.9 |
| 20260508181116 | 65 | 354 | 2.0 | 5.0 | 0.00 | 0.00 | 0.00 | 51 | 1018.0 |
| 20260508180838 | 65 | 269 | 2.0 | 5.0 | 0.00 | 0.00 | 0.00 | 54 | 1018.0 |
| 20260508180115 | 65 | 224 | 2.0 | 5.0 | 0.00 | 0.00 | 0.00 | 47 | 1018.0 |
| 20260508175842 | 64 | 359 | 3.0 | 9.0 | 0.00 | 0.00 | 0.00 | 48 | 1018.5 |
| 20260508175115 | 64 | 317 | 3.0 | 9.0 | 0.00 | 0.00 | 0.00 | 51 | 1018.5 |
| 20260508174612 | 64 | 192 | 3.0 | 6.0 | 0.00 | 0.00 | 0.00 | 50 | 1018.5 |
| 20260508174111 | 64 | 268 | 3.0 | 6.0 | 0.00 | 0.00 | 0.00 | 48 | 1018.8 |
| 20260508174102 | 63 | 293 | 2.0 | 6.0 | 0.00 | 0.00 | 0.00 | 53 | 1018.8 |
| 20260508173323 | 63 | 199 | 2.0 | 5.0 | 0.00 | 0.00 | 0.00 | 55 | 1018.8 |
| 20260508172603 | 63 | 344 | 3.0 | 5.0 | 0.00 | 0.00 | 0.00 | 49 | 1019.1 |
| 20260508172102 | 62 | 158 | 3.0 | 6.0 | 0.00 | 0.00 | 0.00 | 49 | 1019.1 |
| 20260508171603 | 62 | 137 | 2.0 | 6.0 | 0.00 | 0.00 | 0.00 | 51 | 1019.1 |
| 20260508171102 | 62 | 218 | 2.0 | 6.0 | 0.00 | 0.00 | 0.00 | 52 | 1019.4 |
| 20260508170600 | 61 | 1 | 2.0 | 6.0 | 0.00 | 0.00 | 0.00 | 56 | 1019.4 |
| 20260508170057 | 61 | 182 | 2.0 | 5.0 | 0.00 | 0.00 | 0.00 | 57 | 1019.4 |
| 20260508165824 | 61 | 335 | 3.0 | 6.0 | 0.00 | 0.00 | 0.00 | 55 | 1019.6 |
| 20260508165055 | 61 | 349 | 3.0 | 6.0 | 0.00 | 0.00 | 0.00 | 53 | 1019.6 |
| 20260508164553 | 61 | 295 | 3.0 | 6.0 | 0.00 | 0.00 | 0.00 | 56 | 1019.6 |
| 20260508164315 | 60 | 190 | 3.0 | 5.0 | 0.00 | 0.00 | 0.00 | 57 | 1020.0 |
| 20260508163553 | 60 | 233 | 2.0 | 6.0 | 0.00 | 0.00 | 0.00 | 57 | 1020.0 |
| 20260508163053 | 60 | 198 | 2.0 | 6.0 | 0.00 | 0.00 | 0.00 | 62 | 1020.0 |
| 20260508162552 | 59 | 173 | 2.0 | 6.0 | 0.00 | 0.00 | 0.00 | 60 | 1020.3 |
| 20260508162051 | 59 | 355 | 2.0 | 5.0 | 0.00 | 0.00 | 0.00 | 62 | 1020.3 |
| 20260508161553 | 58 | 172 | 2.0 | 4.0 | 0.00 | 0.00 | 0.00 | 64 | 1020.3 |
| 20260508161043 | 58 | 172 | 2.0 | 4.0 | 0.00 | 0.00 | 0.00 | 68 | 1020.5 |
| 20260508160543 | 57 | 167 | 2.0 | 5.0 | 0.00 | 0.00 | 0.00 | 66 | 1020.5 |
| 20260508160042 | 57 | 0 | 2.0 | 5.0 | 0.00 | 0.00 | 0.00 | 64 | 1020.5 |
| 20260508155540 | 57 | 0 | 2.0 | 5.0 | 0.00 | 0.00 | 0.00 | 67 | 1020.6 |
| 20260508155040 | 56 | 4 | 2.0 | 5.0 | 0.00 | 0.00 | 0.00 | 69 | 1020.6 |
| 20260508154540 | 55 | 0 | 2.0 | 4.0 | 0.00 | 0.00 | 0.00 | 63 | 1020.6 |
| 20260508154038 | 55 | 250 | 2.0 | 4.0 | 0.00 | 0.00 | 0.00 | 67 | 1020.9 |
| 20260508153750 | 54 | 198 | 2.0 | 4.0 | 0.00 | 0.00 | 0.00 | 72 | 1020.9 |
| 20260508153033 | 53 | 200 | 2.0 | 4.0 | 0.00 | 0.00 | 0.00 | 79 | 1020.9 |
| 20260508152530 | 53 | 180 | 2.0 | 4.0 | 0.00 | 0.00 | 0.00 | 85 | 1020.9 |
| 20260508152249 | 53 | 257 | 2.0 | 4.0 | 0.00 | 0.00 | 0.00 | 89 | 1020.9 |
| 20260508151525 | 52 | 265 | 1.0 | 4.0 | 0.00 | 0.00 | 0.00 | 94 | 1020.9 |
| 20260508151025 | 51 | 243 | 1.0 | 4.0 | 0.00 | 0.00 | 0.00 | 98 | 1021.1 |
| 20260508150524 | 51 | 226 | 2.0 | 4.0 | 0.00 | 0.00 | 0.00 | 99 | 1021.1 |
| 20260508150024 | 50 | 281 | 2.0 | 5.0 | 0.00 | 0.00 | 0.00 | 99 | 1021.1 |
| 20260508145523 | 50 | 347 | 1.0 | 5.0 | 0.00 | 0.00 | 0.00 | 99 | 1021.1 |
| 20260508145012 | 49 | 7 | 1.0 | 4.0 | 0.00 | 0.00 | 0.00 | 99 | 1021.1 |
| 20260508144512 | 49 | 7 | 1.0 | 5.0 | 0.00 | 0.00 | 0.00 | 99 | 1021.1 |
| 20260508144003 | 49 | 11 | 1.0 | 5.0 | 0.00 | 0.00 | 0.00 | 99 | 1021.1 |
| 20260508143506 | 49 | 16 | 2.0 | 4.0 | 0.00 | 0.00 | 0.00 | 99 | 1021.1 |
| 20260508142957 | 48 | 16 | 2.0 | 5.0 | 0.00 | 0.00 | 0.00 | 99 | 1021.1 |
| 20260508142455 | 48 | 16 | 2.0 | 6.0 | 0.00 | 0.00 | 0.00 | 99 | 1021.1 |
| 20260508141950 | 48 | 6 | 2.0 | 6.0 | 0.00 | 0.01 | 0.00 | 99 | 1021.1 |
| 20260508141448 | 47 | 0 | 2.0 | 5.0 | 0.00 | 0.01 | 0.00 | 99 | 1021.1 |
| 20260508140929 | 47 | 0 | 2.0 | 5.0 | 0.00 | 0.01 | 0.00 | 99 | 1021.0 |
| 20260508140652 | 47 | 2 | 0.0 | 4.0 | 0.00 | 0.01 | 0.00 | 99 | 1021.0 |
| 20260508140146 | 47 | 2 | 0.0 | 2.0 | 0.00 | 0.01 | 0.00 | 99 | 1021.0 |
| 20260508135422 | 47 | 1 | 0.0 | 2.0 | 0.00 | 0.01 | 0.00 | 99 | 1021.0 |
| 20260508134922 | 47 | 2 | 0.0 | 2.0 | 0.00 | 0.01 | 0.00 | 99 | 1021.0 |
| 20260508134419 | 46 | 2 | 0.0 | 2.0 | 0.00 | 0.01 | 0.00 | 99 | 1021.0 |
| 20260508133921 | 46 | 2 | 0.0 | 2.0 | 0.00 | 0.01 | 0.00 | 99 | 1021.0 |
| 20260508133857 | 46 | 2 | 2.0 | 4.0 | 0.00 | 0.01 | 0.00 | 99 | 1021.0 |
| 20260508132915 | 46 | 1 | 2.0 | 5.0 | 0.00 | 0.01 | 0.00 | 99 | 1021.0 |
| 20260508132419 | 45 | 3 | 1.0 | 5.0 | 0.00 | 0.01 | 0.00 | 99 | 1020.9 |
| 20260508131912 | 45 | 5 | 1.0 | 3.0 | 0.00 | 0.01 | 0.00 | 99 | 1020.9 |
| 20260508131420 | 45 | 85 | 0.0 | 3.0 | 0.00 | 0.01 | 0.00 | 99 | 1020.9 |
| 20260508130857 | 45 | 1 | 0.0 | 3.0 | 0.00 | 0.01 | 0.00 | 99 | 1020.9 |
| 20260508130337 | 44 | 2 | 2.0 | 6.0 | 0.00 | 0.01 | 0.00 | 99 | 1020.9 |
| 20260508130054 | 44 | 1 | 0.0 | 6.0 | 0.00 | 0.01 | 0.00 | 99 | 1020.9 |
| 20260508125331 | 44 | 11 | 0.0 | 2.0 | 0.00 | 0.01 | 0.00 | 99 | 1020.7 |
| 20260508124826 | 44 | 11 | 0.0 | 1.0 | 0.00 | 0.01 | 0.00 | 99 | 1020.7 |
| 20260508124325 | 44 | 11 | 0.0 | 1.0 | 0.00 | 0.01 | 0.00 | 99 | 1020.7 |
| 20260508123817 | 44 | 11 | 0.0 | 2.0 | 0.00 | 0.01 | 0.00 | 99 | 1020.6 |
| 20260508123251 | 44 | 10 | 0.0 | 2.0 | 0.00 | 0.01 | 0.00 | 99 | 1020.6 |
| 20260508122742 | 43 | 11 | 0.0 | 4.0 | 0.00 | 0.01 | 0.00 | 99 | 1020.6 |
| 20260508122234 | 43 | 11 | 0.0 | 4.0 | 0.00 | 0.01 | 0.00 | 99 | 1020.4 |
| 20260508121735 | 43 | 10 | 0.0 | 3.0 | 0.00 | 0.02 | 0.00 | 99 | 1020.4 |
| 20260508121455 | 43 | 10 | 0.0 | 3.0 | 0.00 | 0.02 | 0.00 | 99 | 1020.4 |
| 20260508120735 | 43 | 10 | 0.0 | 3.0 | 0.00 | 0.02 | 0.00 | 99 | 1020.3 |
| 20260508120232 | 42 | 10 | 0.0 | 2.0 | 0.00 | 0.02 | 0.00 | 99 | 1020.3 |
| 20260508115733 | 42 | 10 | 0.0 | 4.0 | 0.00 | 0.02 | 0.00 | 99 | 1020.3 |
| 20260508115455 | 42 | 10 | 0.0 | 4.0 | 0.00 | 0.02 | 0.00 | 99 | 1020.2 |
| 20260508114729 | 42 | 11 | 0.0 | 2.0 | 0.00 | 0.02 | 0.00 | 99 | 1020.2 |
| 20260508114501 | 42 | 10 | 0.0 | 2.0 | 0.00 | 0.02 | 0.00 | 99 | 1020.2 |
| 20260508113950 | 41 | 10 | 0.0 | 2.0 | 0.00 | 0.02 | 0.00 | 99 | 1019.9 |
| 20260508113225 | 41 | 10 | 0.0 | 0.0 | 0.00 | 0.02 | 0.00 | 99 | 1019.9 |
| 20260508112724 | 41 | 11 | 0.0 | 0.0 | 0.00 | 0.02 | 0.00 | 99 | 1019.9 |
| 20260508112223 | 41 | 10 | 0.0 | 2.0 | 0.00 | 0.02 | 0.00 | 99 | 1019.7 |
| 20260508111721 | 40 | 10 | 0.0 | 2.0 | 0.00 | 0.02 | 0.00 | 99 | 1019.7 |
| 20260508111219 | 40 | 11 | 0.0 | 2.0 | 0.00 | 0.02 | 0.00 | 99 | 1019.7 |
| 20260508110715 | 40 | 10 | 0.0 | 2.0 | 0.00 | 0.02 | 0.00 | 99 | 1019.5 |
| 20260508110214 | 40 | 10 | 0.0 | 0.0 | 0.00 | 0.02 | 0.00 | 99 | 1019.5 |
| 20260508105147 | 41 | 11 | 0.0 | 0.0 | 0.00 | 0.02 | 0.00 | 99 | 1019.2 |
| 20260508104644 | 41 | 11 | 1.0 | 0.0 | 0.00 | 0.02 | 0.00 | 99 | 1019.2 |
| 20260508104144 | 41 | 11 | 1.0 | 3.0 | 0.00 | 0.02 | 0.00 | 99 | 1019.1 |
| 20260508103647 | 41 | 11 | 2.0 | 5.0 | 0.00 | 0.02 | 0.00 | 99 | 1019.1 |
| 20260508103140 | 41 | 10 | 2.0 | 5.0 | 0.00 | 0.02 | 0.00 | 99 | 1019.1 |
| 20260508102640 | 41 | 10 | 1.0 | 5.0 | 0.00 | 0.02 | 0.00 | 99 | 1019.1 |
| 20260508102140 | 41 | 1 | 1.0 | 3.0 | 0.00 | 0.02 | 0.00 | 99 | 1019.1 |
| 20260508101632 | 41 | 1 | 1.0 | 3.0 | 0.00 | 0.02 | 0.00 | 99 | 1019.1 |
| 20260508101127 | 41 | 1 | 1.0 | 3.0 | 0.00 | 0.02 | 0.00 | 99 | 1018.9 |
| 20260508100834 | 42 | 1 | 0.0 | 4.0 | 0.00 | 0.02 | 0.00 | 99 | 1018.9 |
| 20260508100110 | 42 | 1 | 0.0 | 4.0 | 0.00 | 0.02 | 0.00 | 99 | 1018.9 |
| 20260508095602 | 42 | 1 | 0.0 | 2.0 | 0.00 | 0.02 | 0.00 | 99 | 1019.0 |
| 20260508095044 | 42 | 1 | 0.0 | 2.0 | 0.00 | 0.02 | 0.00 | 99 | 1019.0 |
| 20260508094540 | 42 | 1 | 0.0 | 0.0 | 0.00 | 0.02 | 0.00 | 99 | 1019.0 |
| 20260508094039 | 42 | 1 | 0.0 | 0.0 | 0.00 | 0.02 | 0.00 | 99 | 1018.9 |
| 20260508093532 | 43 | 1 | 0.0 | 0.0 | 0.00 | 0.04 | 0.00 | 99 | 1018.9 |
| 20260508093028 | 43 | 1 | 0.0 | 1.0 | 0.00 | 0.04 | 0.00 | 99 | 1018.9 |
| 20260508092511 | 43 | 1 | 2.0 | 2.0 | 0.00 | 0.04 | 0.00 | 99 | 1018.9 |
| 20260508092002 | 43 | 1 | 2.0 | 3.0 | 0.00 | 0.04 | 0.00 | 99 | 1018.9 |
| 20260508091444 | 42 | 1 | 2.0 | 3.0 | 0.00 | 0.04 | 0.00 | 99 | 1018.9 |
| 20260508091425 | 42 | 1 | 2.0 | 3.0 | 0.00 | 0.04 | 0.00 | 99 | 1018.9 |
| 20260508090439 | 43 | 1 | 1.0 | 3.0 | 0.00 | 0.04 | 0.00 | 99 | 1018.9 |
| 20260508085938 | 43 | 1 | 1.0 | 3.0 | 0.00 | 0.04 | 0.00 | 99 | 1018.9 |
| 20260508085438 | 43 | 1 | 1.0 | 4.0 | 0.00 | 0.04 | 0.00 | 99 | 1018.8 |
| 20260508084930 | 43 | 201 | 1.0 | 4.0 | 0.00 | 0.04 | 0.00 | 99 | 1018.8 |
| 20260508084427 | 43 | 200 | 0.0 | 0.0 | 0.00 | 0.04 | 0.00 | 98 | 1018.8 |
| 20260508083914 | 43 | 201 | 0.0 | 0.0 | 0.00 | 0.04 | 0.00 | 98 | 1018.6 |
| 20260508083408 | 43 | 201 | 0.0 | 0.0 | 0.00 | 0.04 | 0.00 | 98 | 1018.6 |
| 20260508082859 | 44 | 201 | 0.0 | 0.0 | 0.00 | 0.04 | 0.00 | 98 | 1018.6 |
| 20260508082348 | 44 | 201 | 0.0 | 0.0 | 0.00 | 0.04 | 0.00 | 98 | 1018.6 |
| 20260508082101 | 44 | 200 | 0.0 | 0.0 | 0.00 | 0.04 | 0.00 | 98 | 1018.6 |
| 20260508081337 | 44 | 201 | 0.0 | 0.0 | 0.00 | 0.04 | 0.00 | 98 | 1018.6 |
| 20260508081101 | 44 | 201 | 0.0 | 0.0 | 0.00 | 0.04 | 0.00 | 98 | 1018.6 |
| 20260508080309 | 44 | 201 | 0.0 | 0.0 | 0.00 | 0.04 | 0.00 | 98 | 1018.6 |
| 20260508075801 | 44 | 201 | 0.0 | 0.0 | 0.00 | 0.04 | 0.00 | 98 | 1018.6 |
| 20260508075241 | 44 | 201 | 0.0 | 0.0 | 0.00 | 0.05 | 0.00 | 97 | 1018.6 |
| 20260508075003 | 44 | 201 | 0.0 | 2.0 | 0.00 | 0.05 | 0.00 | 97 | 1018.6 |
| 20260508074224 | 45 | 201 | 0.0 | 2.0 | 0.00 | 0.05 | 0.00 | 98 | 1018.6 |
| 20260508073706 | 45 | 201 | 0.0 | 2.0 | 0.00 | 0.05 | 0.00 | 98 | 1018.7 |
| 20260508073202 | 45 | 201 | 0.0 | 2.0 | 0.00 | 0.05 | 0.00 | 97 | 1018.7 |
| 20260508072916 | 45 | 201 | 0.0 | 0.0 | 0.00 | 0.05 | 0.00 | 98 | 1018.5 |
| 20260508072145 | 46 | 200 | 0.0 | 1.0 | 0.00 | 0.05 | 0.00 | 98 | 1018.5 |
| 20260508071637 | 46 | 201 | 0.0 | 1.0 | 0.00 | 0.06 | 0.00 | 98 | 1018.5 |
| 20260508071124 | 46 | 201 | 0.0 | 1.0 | 0.00 | 0.06 | 0.00 | 98 | 1018.6 |
| 20260508070616 | 46 | 201 | 0.0 | 1.0 | 0.00 | 0.06 | 0.00 | 97 | 1018.6 |
| 20260508070104 | 46 | 201 | 0.0 | 1.0 | 0.00 | 0.06 | 0.00 | 97 | 1018.6 |
| 20260508065539 | 46 | 201 | 0.0 | 0.0 | 0.00 | 0.06 | 0.00 | 97 | 1018.7 |
| 20260508065024 | 46 | 201 | 0.0 | 2.0 | 0.00 | 0.06 | 0.00 | 97 | 1018.7 |
| 20260508064527 | 46 | 201 | 1.0 | 2.0 | 0.00 | 0.06 | 0.00 | 97 | 1018.7 |
| 20260508063956 | 47 | 201 | 1.0 | 2.0 | 0.00 | 0.06 | 0.00 | 98 | 1018.6 |
| 20260508063459 | 47 | 201 | 1.0 | 2.0 | 0.00 | 0.06 | 0.00 | 98 | 1018.6 |
| 20260508062943 | 47 | 201 | 1.0 | 3.0 | 0.00 | 0.06 | 0.00 | 97 | 1018.6 |
| 20260508062439 | 47 | 201 | 0.0 | 3.0 | 0.00 | 0.06 | 0.00 | 97 | 1018.7 |
| 20260508062200 | 47 | 201 | 0.0 | 2.0 | 0.00 | 0.06 | 0.00 | 97 | 1018.7 |
| 20260508061436 | 47 | 201 | 0.0 | 0.0 | 0.00 | 0.06 | 0.00 | 95 | 1018.7 |
| 20260508060937 | 47 | 201 | 0.0 | 0.0 | 0.00 | 0.06 | 0.00 | 96 | 1018.7 |
| 20260508060406 | 47 | 200 | 0.0 | 2.0 | 0.00 | 0.06 | 0.00 | 96 | 1018.7 |
| 20260508055829 | 48 | 201 | 0.0 | 0.0 | 0.00 | 0.07 | 0.00 | 96 | 1018.7 |
| 20260508055248 | 48 | 201 | 0.0 | 2.0 | 0.00 | 0.07 | 0.00 | 96 | 1018.7 |
| 20260508054730 | 48 | 201 | 1.0 | 2.0 | 0.00 | 0.07 | 0.00 | 96 | 1018.7 |
| 20260508054209 | 48 | 201 | 1.0 | 2.0 | 0.00 | 0.07 | 0.00 | 96 | 1018.7 |
| 20260508053656 | 49 | 201 | 1.0 | 3.0 | 0.00 | 0.07 | 0.00 | 98 | 1018.8 |
| 20260508053154 | 49 | 201 | 1.0 | 3.0 | 0.00 | 0.07 | 0.00 | 99 | 1018.8 |
| 20260508052652 | 49 | 201 | 0.0 | 2.0 | 0.00 | 0.07 | 0.00 | 99 | 1018.8 |
| 20260508052631 | 48 | 201 | 0.0 | 0.0 | 0.00 | 0.07 | 0.00 | 98 | 1018.8 |
| 20260508051624 | 48 | 201 | 0.0 | 0.0 | 0.00 | 0.07 | 0.00 | 97 | 1018.8 |
| 20260508051113 | 49 | 201 | 0.0 | 0.0 | 0.00 | 0.07 | 0.00 | 97 | 1018.6 |
| 20260508050611 | 49 | 200 | 0.0 | 0.0 | 0.00 | 0.07 | 0.00 | 96 | 1018.6 |
| 20260508050037 | 49 | 201 | 0.0 | 0.0 | 0.00 | 0.07 | 0.00 | 97 | 1018.6 |
| 20260508045534 | 49 | 201 | 0.0 | 0.0 | 0.00 | 0.07 | 0.00 | 97 | 1018.3 |
| 20260508045009 | 50 | 201 | 0.0 | 0.0 | 0.00 | 0.07 | 0.00 | 97 | 1018.3 |
| 20260508044446 | 50 | 201 | 1.0 | 3.0 | 0.00 | 0.07 | 0.00 | 97 | 1018.3 |
| 20260508043856 | 50 | 201 | 1.0 | 3.0 | 0.00 | 0.07 | 0.00 | 97 | 1018.2 |
| 20260508043346 | 51 | 201 | 0.0 | 2.0 | 0.00 | 0.07 | 0.00 | 98 | 1018.2 |
| 20260508042842 | 51 | 201 | 1.0 | 2.0 | 0.00 | 0.07 | 0.00 | 98 | 1018.2 |
| 20260508042336 | 51 | 201 | 1.0 | 2.0 | 0.00 | 0.08 | 0.00 | 98 | 1018.1 |
| 20260508041837 | 51 | 201 | 0.0 | 2.0 | 0.00 | 0.08 | 0.00 | 99 | 1018.1 |
| 20260508041333 | 51 | 201 | 0.0 | 2.0 | 0.00 | 0.08 | 0.00 | 98 | 1018.1 |
| 20260508041055 | 51 | 201 | 0.0 | 1.0 | 0.00 | 0.08 | 0.00 | 98 | 1018.1 |
| 20260508040306 | 51 | 201 | 0.0 | 2.0 | 0.00 | 0.08 | 0.00 | 98 | 1018.1 |
| 20260508035753 | 51 | 201 | 0.0 | 2.0 | 0.00 | 0.08 | 0.08 | 98 | 1018.1 |
| 20260508035254 | 51 | 201 | 0.0 | 2.0 | 0.00 | 0.08 | 0.08 | 98 | 1017.9 |
| 20260508034753 | 51 | 201 | 0.0 | 2.0 | 0.00 | 0.08 | 0.08 | 98 | 1017.9 |
| 20260508034242 | 51 | 201 | 0.0 | 2.0 | 0.00 | 0.08 | 0.08 | 97 | 1017.9 |
| 20260508033737 | 51 | 201 | 0.0 | 0.0 | 0.00 | 0.08 | 0.08 | 97 | 1018.0 |
| 20260508033222 | 51 | 201 | 0.0 | 2.0 | 0.00 | 0.08 | 0.08 | 96 | 1018.0 |
| 20260508032719 | 52 | 201 | 0.0 | 2.0 | 0.00 | 0.08 | 0.08 | 96 | 1018.0 |
| 20260508032218 | 52 | 201 | 0.0 | 2.0 | 0.00 | 0.08 | 0.08 | 96 | 1018.0 |
| 20260508031713 | 52 | 201 | 0.0 | 2.0 | 0.00 | 0.08 | 0.08 | 96 | 1018.0 |
| 20260508031158 | 52 | 201 | 0.0 | 2.0 | 0.00 | 0.08 | 0.08 | 96 | 1018.0 |
| 20260508031139 | 52 | 201 | 0.0 | 2.0 | 0.00 | 0.08 | 0.08 | 96 | 1017.8 |
| 20260508030139 | 52 | 201 | 0.0 | 1.0 | 0.00 | 0.08 | 0.08 | 95 | 1017.8 |
| 20260508025637 | 52 | 201 | 0.0 | 0.0 | 0.00 | 0.08 | 0.08 | 95 | 1017.5 |
| 20260508025136 | 53 | 201 | 0.0 | 0.0 | 0.00 | 0.08 | 0.08 | 95 | 1017.5 |
| 20260508024636 | 53 | 200 | 0.0 | 0.0 | 0.00 | 0.08 | 0.08 | 95 | 1017.5 |
| 20260508024120 | 53 | 201 | 0.0 | 0.0 | 0.00 | 0.08 | 0.08 | 95 | 1017.4 |
| 20260508023615 | 53 | 201 | 0.0 | 0.0 | 0.00 | 0.08 | 0.08 | 95 | 1017.4 |
| 20260508023056 | 53 | 200 | 0.0 | 0.0 | 0.00 | 0.08 | 0.08 | 95 | 1017.4 |
| 20260508022557 | 53 | 201 | 1.0 | 0.0 | 0.00 | 0.08 | 0.08 | 95 | 1017.3 |
| 20260508022048 | 53 | 201 | 1.0 | 4.0 | 0.00 | 0.08 | 0.08 | 95 | 1017.3 |
| 20260508021540 | 53 | 201 | 0.0 | 4.0 | 0.00 | 0.08 | 0.08 | 95 | 1017.3 |
| 20260508021027 | 53 | 201 | 0.0 | 2.0 | 0.00 | 0.08 | 0.08 | 95 | 1017.1 |
| 20260508020735 | 54 | 201 | 2.0 | 2.0 | 0.00 | 0.08 | 0.08 | 94 | 1017.1 |
| 20260508020009 | 54 | 201 | 0.0 | 0.0 | 0.00 | 0.09 | 0.08 | 94 | 1017.1 |
| 20260508015510 | 54 | 201 | 0.0 | 0.0 | 0.00 | 0.09 | 0.08 | 94 | 1016.8 |
| 20260508014945 | 54 | 201 | 0.0 | 2.0 | 0.00 | 0.11 | 0.08 | 94 | 1016.8 |
| 20260508014442 | 54 | 201 | 0.0 | 2.0 | 0.00 | 0.11 | 0.08 | 94 | 1016.8 |
| 20260508013911 | 54 | 201 | 0.0 | 2.0 | 0.00 | 0.11 | 0.08 | 93 | 1016.5 |
| 20260508013413 | 54 | 201 | 0.0 | 0.0 | 0.00 | 0.11 | 0.08 | 93 | 1016.5 |
| 20260508012908 | 54 | 201 | 0.0 | 2.0 | 0.00 | 0.11 | 0.08 | 92 | 1016.5 |
| 20260508012622 | 54 | 201 | 0.0 | 2.0 | 0.00 | 0.11 | 0.08 | 91 | 1016.2 |
| 20260508012123 | 55 | 201 | 0.0 | 2.0 | 0.00 | 0.12 | 0.08 | 91 | 1016.2 |
| 20260508011346 | 55 | 201 | 0.0 | 2.0 | 0.00 | 0.12 | 0.08 | 90 | 1016.2 |
| 20260508011102 | 55 | 201 | 0.0 | 2.0 | 0.00 | 0.12 | 0.08 | 89 | 1016.1 |
| 20260508010340 | 55 | 201 | 0.0 | 2.0 | 0.00 | 0.12 | 0.08 | 88 | 1016.1 |
| 20260508010057 | 56 | 201 | 0.0 | 2.0 | 0.00 | 0.15 | 0.08 | 87 | 1016.1 |
| 20260508005320 | 56 | 201 | 0.0 | 2.0 | 0.00 | 0.18 | 0.08 | 86 | 1015.9 |
| 20260508004812 | 57 | 201 | 0.0 | 2.0 | 0.00 | 0.18 | 0.08 | 85 | 1015.9 |
| 20260508004514 | 57 | 201 | 0.0 | 2.0 | 0.00 | 0.18 | 0.08 | 84 | 1015.9 |
| 20260508003751 | 58 | 201 | 0.0 | 1.0 | 0.00 | 0.19 | 0.08 | 82 | 1015.6 |
| 20260508003233 | 58 | 201 | 0.0 | 0.0 | 0.00 | 0.19 | 0.08 | 81 | 1015.6 |
| 20260508002710 | 59 | 201 | 0.0 | 2.0 | 0.00 | 0.19 | 0.08 | 80 | 1015.6 |
| 20260508002203 | 59 | 201 | 0.0 | 2.0 | 0.00 | 0.21 | 0.08 | 79 | 1015.6 |
| 20260508001700 | 59 | 201 | 0.0 | 2.0 | 0.00 | 0.21 | 0.08 | 78 | 1015.6 |
| 20260508001152 | 60 | 201 | 0.0 | 2.0 | 0.00 | 0.24 | 0.08 | 77 | 1015.6 |
| 20260508000651 | 60 | 201 | 0.0 | 2.0 | 0.00 | 0.26 | 0.08 | 77 | 1015.5 |
| 20260508000137 | 60 | 201 | 0.0 | 1.0 | 0.00 | 0.29 | 0.08 | 76 | 1015.5 |
| 20260507235850 | 61 | 200 | 0.0 | 2.0 | 0.00 | 0.31 | 0.08 | 76 | 1015.7 |
| 20260507235116 | 60 | 200 | 0.0 | 2.0 | 0.00 | 0.31 | 0.08 | 76 | 1015.7 |
| 20260507234604 | 60 | 200 | 0.0 | 2.0 | 0.00 | 0.31 | 0.08 | 77 | 1015.7 |
| 20260507234057 | 60 | 199 | 0.0 | 2.0 | 0.00 | 0.33 | 0.08 | 78 | 1015.6 |
| 20260507233555 | 60 | 199 | 1.0 | 2.0 | 0.00 | 0.33 | 0.08 | 77 | 1015.6 |
| 20260507233037 | 60 | 200 | 1.0 | 3.0 | 0.00 | 0.33 | 0.08 | 75 | 1015.6 |
| 20260507232533 | 61 | 200 | 2.0 | 4.0 | 0.00 | 0.33 | 0.08 | 73 | 1015.7 |
| 20260507232028 | 62 | 200 | 2.0 | 5.0 | 0.00 | 0.33 | 0.08 | 72 | 1015.7 |
| 20260507231745 | 62 | 199 | 2.0 | 5.0 | 0.00 | 0.33 | 0.08 | 70 | 1015.7 |
| 20260507231029 | 62 | 207 | 2.0 | 4.0 | 0.00 | 0.33 | 0.08 | 72 | 1015.8 |
| 20260507230759 | 61 | 206 | 0.0 | 4.0 | 0.00 | 0.33 | 0.08 | 74 | 1015.8 |
| 20260507230027 | 61 | 208 | 0.0 | 2.0 | 0.00 | 0.33 | 0.08 | 74 | 1015.8 |
| 20260507225706 | 60 | 208 | 0.0 | 2.0 | 0.00 | 0.33 | 0.08 | 75 | 1015.8 |
| 20260507224947 | 60 | 208 | 0.0 | 2.0 | 0.00 | 0.33 | 0.08 | 75 | 1015.8 |
| 20260507224444 | 60 | 208 | 0.0 | 0.0 | 0.00 | 0.33 | 0.08 | 75 | 1015.8 |
| 20260507223941 | 60 | 208 | 0.0 | 2.0 | 0.00 | 0.33 | 0.08 | 73 | 1015.6 |
| 20260507223440 | 61 | 209 | 2.0 | 3.0 | 0.00 | 0.33 | 0.08 | 72 | 1015.6 |
| 20260507223409 | 61 | 208 | 2.0 | 3.0 | 0.00 | 0.33 | 0.08 | 72 | 1015.6 |
| 20260507222430 | 62 | 208 | 2.0 | 4.0 | 0.00 | 0.33 | 0.08 | 71 | 1015.5 |
| 20260507221924 | 62 | 208 | 2.0 | 6.0 | 0.00 | 0.33 | 0.08 | 70 | 1015.5 |
| 20260507221417 | 62 | 264 | 2.0 | 6.0 | 0.00 | 0.33 | 0.08 | 69 | 1015.5 |
| 20260507220910 | 62 | 265 | 2.0 | 6.0 | 0.00 | 0.33 | 0.08 | 72 | 1015.4 |
| 20260507220410 | 62 | 170 | 3.0 | 6.0 | 0.00 | 0.33 | 0.08 | 71 | 1015.4 |
| 20260507215908 | 62 | 184 | 3.0 | 6.0 | 0.00 | 0.33 | 0.08 | 72 | 1015.4 |
| 20260507215638 | 61 | 218 | 2.0 | 6.0 | 0.00 | 0.33 | 0.08 | 74 | 1015.3 |
| 20260507214907 | 61 | 186 | 2.0 | 5.0 | 0.00 | 0.33 | 0.08 | 72 | 1015.3 |
| 20260507214405 | 61 | 186 | 2.0 | 5.0 | 0.00 | 0.33 | 0.08 | 71 | 1015.3 |
| 20260507213904 | 61 | 179 | 2.0 | 6.0 | 0.00 | 0.33 | 0.08 | 74 | 1015.1 |
| 20260507213403 | 60 | 179 | 0.0 | 6.0 | 0.00 | 0.33 | 0.08 | 75 | 1015.1 |
| 20260507212856 | 60 | 350 | 0.0 | 2.0 | 0.00 | 0.33 | 0.08 | 74 | 1015.1 |
| 20260507212354 | 59 | 350 | 1.0 | 1.0 | 0.00 | 0.33 | 0.08 | 74 | 1015.3 |
| 20260507211846 | 59 | 350 | 2.0 | 3.0 | 0.00 | 0.33 | 0.08 | 73 | 1015.3 |
| 20260507211345 | 59 | 350 | 2.0 | 3.0 | 0.00 | 0.33 | 0.08 | 72 | 1015.3 |
| 20260507211106 | 60 | 278 | 2.0 | 4.0 | 0.00 | 0.33 | 0.08 | 71 | 1015.2 |
| 20260507210349 | 60 | 277 | 2.0 | 4.0 | 0.00 | 0.33 | 0.08 | 70 | 1015.2 |
| 20260507205844 | 61 | 337 | 2.0 | 4.0 | 0.00 | 0.33 | 0.08 | 72 | 1015.2 |
| 20260507205341 | 61 | 255 | 2.0 | 5.0 | 0.00 | 0.33 | 0.08 | 69 | 1015.2 |
| 20260507204833 | 60 | 177 | 2.0 | 5.0 | 0.00 | 0.33 | 0.08 | 75 | 1015.2 |
| 20260507204551 | 60 | 188 | 2.0 | 4.0 | 0.00 | 0.33 | 0.08 | 77 | 1015.2 |
| 20260507203828 | 59 | 283 | 1.0 | 4.0 | 0.00 | 0.33 | 0.08 | 77 | 1015.2 |
| 20260507203328 | 59 | 311 | 1.0 | 4.0 | 0.00 | 0.33 | 0.08 | 75 | 1015.2 |
| 20260507202828 | 59 | 355 | 1.0 | 4.0 | 0.00 | 0.33 | 0.08 | 74 | 1015.2 |
| 20260507202327 | 59 | 166 | 1.0 | 2.0 | 0.00 | 0.33 | 0.08 | 76 | 1015.2 |
| 20260507202043 | 59 | 166 | 1.0 | 5.0 | 0.00 | 0.33 | 0.08 | 76 | 1015.2 |
| 20260507201244 | 58 | 166 | 1.0 | 5.0 | 0.00 | 0.33 | 0.08 | 77 | 1015.2 |
| 20260507200743 | 58 | 321 | 1.0 | 4.0 | 0.00 | 0.33 | 0.08 | 81 | 1015.5 |
| 20260507200243 | 57 | 321 | 1.0 | 3.0 | 0.00 | 0.33 | 0.08 | 81 | 1015.5 |
| 20260507195743 | 57 | 321 | 1.0 | 4.0 | 0.00 | 0.33 | 0.08 | 83 | 1015.5 |
| 20260507195456 | 57 | 321 | 1.0 | 4.0 | 0.00 | 0.33 | 0.08 | 82 | 1015.7 |
| 20260507194738 | 57 | 282 | 2.0 | 2.0 | 0.00 | 0.33 | 0.08 | 81 | 1015.7 |
| 20260507194222 | 57 | 282 | 2.0 | 3.0 | 0.00 | 0.33 | 0.08 | 81 | 1015.7 |
| 20260507193721 | 57 | 282 | 2.0 | 4.0 | 0.00 | 0.33 | 0.08 | 81 | 1015.6 |